Location: *
(40.7873°S, 98.7174°E)
Time: 11:50:57
(UTC+00:00)

Kosmos-1816 - Pass Details

Date: 22 June 2024
Orbit: 959 x 1007 km, 82.9° (Epoch: 23 July)

Event Time Altitude Azimuth Distance (km) Brightness Sun altitude
Rises 10:54:58 0° 175° (S) 3,765 8.8 -9.3°
Reaches altitude 10° 10:58:14 10° 160° (SSE) 2,801 8.0 -9.9°
Maximum altitude 11:03:02 22° 111° (ESE) 2,057 7.1 -10.7°
Drops below altitude 10° 11:07:46 10° 62° (ENE) 2,755 8.0 -11.6°
Sets 11:10:55 0° 47° (NE) 3,686 8.8 -12.1°
